STARLINK-36137

Last updated on Fri Dec 19 2025 00:02:09 GMT+0000 (Coordinated Universal Time)

1 67033U 25294D 25351.83335648 -.01275618 48515-3 -31853-2 0 9997 2 67033 42.9998 151.3166 0001774 276.4167 126.1219 15.94895855 2123
UTC large
Height (km)
Speed (km/s)
/
Latitude / Longitude
Inclination (degrees)
Orbital Period (minutes)
Azimuth
Elevation
Range (km)
Doppler Factor

Next 0 passes for location: London (51.5072 / 0.1276)

Sorry there are no passes over London.